Home   Weather   Roanoke   Past weeks
Flag for USA

Past Weather in Roanoke, Virginia, USA — Yesterday and Last 2 Weeks

Now
76 °F

Scattered clouds.


Feels Like: 77 °F
Forecast: 92 / 72 °F
Wind: 3 mph from North

Location: Roanoke Regional Airport

Current Time: Jul 16, 2019 at 10:37:26 am

Latest Report: Jul 16, 2019 at 8:54 am


Visibility: 10 mi

Pressure: 30.16 "Hg

Humidity: 77%

Dew Point: 68 °F

Location of RoanokeLocation

Past Weather in Roanoke — Graph

°F

Roanoke Temperature Yesterday

Maximum temperature yesterday: 91 °F (at 1:54 pm)
Minimum temperature yesterday: 71 °F (at 9:54 pm)
Average temperature yesterday: 79 °F

High & Low Weather Summary for the Past Weeks

 TemperatureHumidityPressure
High94 °F (Jul 6, 3:54 pm)97% (Jul 5, 4:54 am)30.19 "Hg (Jul 5, 4:54 am)
Low68 °F (Jul 2, 1:54 am)31% (Jul 13, 2:54 pm)29.83 "Hg (Jul 12, 2:54 am)
Average79 °F70%30.01 "Hg
* Reported Jul 1 8:54 am — Jul 16 8:54 am, Roanoke. Weather by CustomWeather, © 2019

Note: Actual official high and low records may vary slightly from our data, if they occured in-between our weather recording intervals... More about our weather records

Advertising

Roanoke Weather History for the Previous 24 Hours

Scroll right to see more
 ConditionsComfort  
Time TempWeatherWind HumidityBarometerVisibility
8:54 am
Tue, Jul 16
76 °FScattered clouds.3 mph77%30.16 "Hg10 mi
7:54 am74 °FScattered clouds.3 mph82%30.16 "Hg10 mi
6:54 am71 °FScattered clouds.No wind87%30.14 "Hg10 mi
5:54 am69 °FPassing clouds.3 mph93%30.13 "Hg10 mi
4:54 am69 °FClear.5 mph93%30.11 "Hg10 mi
3:54 am70 °FPassing clouds.6 mph93%30.11 "Hg10 mi
2:54 am72 °FPassing clouds.6 mph87%30.11 "Hg10 mi
1:54 am71 °FClear.3 mph87%30.12 "Hg10 mi
12:54 am71 °FPassing clouds.3 mph93%30.12 "Hg10 mi
11:54 pm
Mon, Jul 15
72 °FPassing clouds.5 mph91%30.12 "Hg10 mi
10:54 pm71 °FPassing clouds.5 mph90%30.12 "Hg10 mi
9:54 pm71 °FPassing clouds.5 mph90%30.12 "Hg10 mi
9:19 pm72 °FLight rain. Passing clouds.5 mph87%30.17 "Hg10 mi
8:54 pm73 °FThunderstorms. Partly cloudy.8 mph81%30.14 "Hg8 mi
7:54 pm75 °FThunderstorms. Partly sunny.10 mph79%30.14 "Hg10 mi
6:54 pm76 °FThunderstorms. Broken clouds.6 mph77%30.08 "Hg10 mi
5:54 pm84 °FThunderstorms. Partly sunny.14 mph59%30.08 "Hg10 mi
4:54 pm91 °FScattered clouds.12 mph49%30.07 "Hg10 mi
3:54 pm89 °FBroken clouds.6 mph48%30.09 "Hg10 mi
2:54 pm88 °FBroken clouds.10 mph54%30.10 "Hg10 mi
1:54 pm91 °FBroken clouds.6 mph45%30.11 "Hg10 mi
12:54 pm90 °FScattered clouds.N/A48%30.12 "Hg10 mi
11:54 am90 °FScattered clouds.No wind47%30.12 "Hg10 mi
10:54 am86 °FSunny.5 mph53%30.14 "Hg10 mi
Weather by CustomWeather, © 2019

See weather overview

LIVE PARTIAL LUNAR ECLIPSE – Watch the eclipse as it happens